Track COSMOS 2517 (GEO-IK) now! 10-day predictions COSMOS 2517 (GEO-IK) is classified as:
1 41579U 16034A 25193.25555405 -.00000008 00000-0 31303-4 0 9994 2 41579 99.1932 203.3967 0001310 94.4776 265.6530 13.85908828460541